This demonstration page uses our WeatherBlox Daily Observations layout. Learn more.

Left ArrowRight Arrow

39.51506, -84.39828

Hourly Observations for January 5, 2019

Temp ( °F °C ) Dew Point ( °F °C ) Humidity (%) Winds ( mph kmh ) Pressure ( in mb ) Visibility ( mi km ) Precip ( " mm )
12:15 am 00:15 Cloudy with Light Rain 39 4.1 38 3.5 96 96 WSW 3 6 29.71 1006 7 11 0.00 0.00
12:35 am 00:35 Mostly Cloudy 39 4 38 3.4 96 96 Calm 29.71 1006 7 11 0.00 0.00
12:55 am 00:55 Cloudy 39 4 38 3.3 95 95 Calm 29.68 1005 7 11 0.00 0.00
1:15 am 01:15 Clear 38 3.1 37 2.6 97 97 WNW 6 9 29.71 1006 7 11 0.00 0.00
1:35 am 01:35 Partly Cloudy 38 3.3 36 2.4 94 94 WNW 5 7 29.71 1006 10 16 0.00 0.00
1:55 am 01:55 Clear 37 3 36 2.2 95 95 Calm 29.71 1006 7 11 0.00 0.00
2:15 am 02:15 Clear 38 3.1 36 2.1 93 93 Calm 29.71 1006 10 16 0.00 0.00
2:35 am 02:35 Clear with Mist and Fog 35 1.7 34 1 95 95 Calm 29.71 1006 7 11 0.00 0.00
2:55 am 02:55 Clear 37 2.9 35 1.4 90 90 Calm 29.74 1007 10 16 0.00 0.00
3:15 am 03:15 Clear 37 2.7 33 0.8 87 87 WNW 6 9 29.74 1007 10 16 0.00 0.00
3:35 am 03:35 Clear 37 2.8 33 0.7 86 86 W 5 7 29.74 1007 10 16 0.00 0.00
3:55 am 03:55 Clear 37 2.7 33 0.4 85 85 W 3 6 29.74 1007 10 16 0.00 0.00
4:15 am 04:15 Clear 35 1.9 32 0.2 89 89 Calm 29.77 1008 10 16 0.00 0.00
4:35 am 04:35 Clear 36 2.1 32 -0.1 86 86 SW 3 6 29.77 1008 10 16 0.00 0.00
4:55 am 04:55 Clear 36 2.2 32 -0.1 85 85 W 6 9 29.77 1008 10 16 0.00 0.00
5:15 am 05:15 Clear 36 2.3 32 -0.1 84 84 Calm 29.77 1008 10 16 0.00 0.00
5:35 am 05:35 Clear 35 1.6 31 -0.5 86 86 Calm 29.80 1009 10 16 0.00 0.00
5:55 am 05:55 Clear 35 1.9 31 -0.5 84 84 SW 5 7 29.80 1009 10 16 0.00 0.00
6:15 am 06:15 Clear 35 1.7 31 -0.5 86 86 SSW 6 9 29.80 1009 10 16 0.00 0.00
6:35 am 06:35 Clear 34 1.1 31 -0.8 87 87 SSW 6 9 29.83 1010 10 16 0.00 0.00
6:55 am 06:55 Clear 34 0.9 31 -0.8 89 89 SSW 6 9 29.85 1011 10 16 0.00 0.00
7:15 am 07:15 Clear 34 1 31 -0.6 89 89 SW 6 9 29.85 1011 10 16 0.00 0.00
7:35 am 07:35 Clear 34 0.9 31 -0.6 90 90 SW 7 11 29.88 1012 10 16 0.00 0.00
7:55 am 07:55 Clear 34 1.1 31 -0.6 89 89 WSW 6 9 29.88 1012 10 16 0.00 0.00
8:15 am 08:15 Sunny 33 0.7 31 -0.6 91 91 WSW 6 9 29.88 1012 7 11 0.00 0.00
8:35 am 08:35 Sunny 34 1.1 31 -0.4 90 90 SW 6 9 29.88 1012 7 11 0.00 0.00
8:55 am 08:55 Sunny with Mist and Fog 35 1.5 32 -0.1 89 89 SW 5 7 29.91 1013 7 11 0.00 0.00
9:15 am 09:15 Sunny with Mist and Fog 36 2 33 0.4 89 89 SW 5 7 29.91 1013 7 11 0.00 0.00
9:35 am 09:35 Sunny with Mist and Fog 37 2.6 33 0.6 87 87 SW 8 13 29.94 1014 7 11 0.00 0.00
9:55 am 09:55 Sunny 38 3.3 34 1.2 86 86 WSW 7 11 29.91 1013 7 11 0.00 0.00
10:15 am 10:15 Sunny 39 3.7 35 1.6 86 86 WSW 7 11 29.91 1013 7 11 0.00 0.00
10:35 am 10:35 Sunny 40 4.4 35 1.7 83 83 SW 9 15 29.91 1013 7 11 0.00 0.00
10:55 am 10:55 Sunny 41 4.9 35 1.8 81 81 WSW 7 11 29.91 1013 7 11 0.00 0.00
11:15 am 11:15 Sunny 42 5.7 36 2.3 79 79 WSW 10 17 29.91 1013 7 11 0.00 0.00
11:35 am 11:35 Sunny 43 6.2 36 2.3 76 76 WSW 8 13 29.94 1014 10 16 0.00 0.00
11:55 am 11:55 Sunny 44 6.9 37 2.7 75 75 WSW 8 13 29.91 1013 10 16 0.00 0.00
12:15 pm 12:15 Sunny 46 7.6 37 3 73 73 SW 10 17 29.91 1013 10 16 0.00 0.00
12:35 pm 12:35 Sunny 46 8 37 2.6 69 69 WSW 12 19 29.91 1013 10 16 0.00 0.00
12:55 pm 12:55 Sunny 47 8.5 38 3.5 71 71 SW 10 17 29.91 1013 10 16 0.00 0.00
1:15 pm 13:15 Sunny 48 8.9 38 3.6 70 70 SSW 9 15 29.91 1013 10 16 0.00 0.00
1:35 pm 13:35 Sunny 49 9.4 38 3.4 66 66 WSW 10 17 29.91 1013 10 16 0.00 0.00
1:55 pm 13:55 Sunny 49 9.7 38 3.5 66 66 WSW 10 17 29.91 1013 10 16 0.00 0.00
2:15 pm 14:15 Sunny 50 10.2 38 3.5 63 63 WSW 10 17 29.91 1013 10 16 0.00 0.00
2:35 pm 14:35 Sunny 51 10.5 38 3.5 62 62 WSW 10 17 29.94 1014 10 16 0.00 0.00
2:55 pm 14:55 Sunny 51 10.7 38 3.4 61 61 WSW 10 17 29.94 1014 10 16 0.00 0.00
3:15 pm 15:15 Sunny 51 10.8 38 3.3 60 60 SW 12 19 29.94 1014 10 16 0.00 0.00
3:35 pm 15:35 Sunny 52 11.1 38 3.2 59 59 WSW 12 19 29.94 1014 10 16 0.00 0.00
3:55 pm 15:55 Sunny 52 11.2 39 3.7 60 60 SW 9 15 29.94 1014 10 16 0.00 0.00
4:15 pm 16:15 Sunny 52 11 39 4 62 62 SW 10 17 29.94 1014 10 16 0.00 0.00
4:35 pm 16:35 Sunny 51 10.8 38 3.4 61 61 SW 13 20 29.94 1014 10 16 0.00 0.00
4:55 pm 16:55 Sunny 51 10.3 38 3.5 63 63 SW 7 11 29.94 1014 10 16 0.00 0.00
5:15 pm 17:15 Sunny 49 9.3 38 3.3 66 66 SW 8 13 29.97 1015 10 16 0.00 0.00
5:35 pm 17:35 Clear 48 8.7 38 3.2 69 69 SW 7 11 29.97 1015 10 16 0.00 0.00
5:55 pm 17:55 Clear 46 8 37 2.9 70 70 SW 6 9 29.97 1015 10 16 0.00 0.00
6:15 pm 18:15 Clear 44 6.6 37 2.8 77 77 SSW 8 13 29.97 1015 10 16 0.00 0.00
6:35 pm 18:35 Clear 43 6.3 37 2.8 79 79 SW 7 11 29.97 1015 10 16 0.00 0.00
6:55 pm 18:55 Clear 44 6.4 37 2.8 78 78 SSW 8 13 29.97 1015 10 16 0.00 0.00
7:15 pm 19:15 Clear 43 6.2 37 2.7 79 79 SSW 5 7 30.00 1016 10 16 0.00 0.00
7:35 pm 19:35 Clear 44 6.9 37 3 76 76 Calm 30.00 1016 10 16 0.00 0.00
7:55 pm 19:55 Clear 44 6.6 37 3 78 78 Calm 30.00 1016 10 16 0.00 0.00
8:15 pm 20:15 Clear 41 4.9 37 2.6 85 85 S 3 6 30.00 1016 10 16 0.00 0.00
8:35 pm 20:35 Clear 38 3.5 35 1.7 88 88 Calm 30.03 1017 10 16 0.00 0.00
8:55 pm 20:55 Clear 38 3.5 36 2.4 93 93 Calm 30.03 1017 10 16 0.00 0.00
9:15 pm 21:15 Clear 39 4 37 2.8 92 92 Calm 30.00 1016 10 16 0.00 0.00
9:35 pm 21:35 Clear 42 5.3 37 3 85 85 S 3 6 30.03 1017 10 16 0.00 0.00
9:55 pm 21:55 Clear 37 2.6 35 1.4 92 92 S 3 6 30.06 1018 10 16 0.00 0.00
10:15 pm 22:15 Clear 37 3 35 1.9 93 93 SSW 5 7 30.06 1018 10 16 0.00 0.00
10:35 pm 22:35 Clear 38 3.5 35 1.9 89 89 SW 7 11 30.06 1018 10 16 0.00 0.00
10:55 pm 22:55 Clear 37 2.8 35 1.5 91 91 SW 5 7 30.06 1018 10 16 0.00 0.00
11:15 pm 23:15 Clear 39 4 36 2.4 89 89 SW 6 9 30.03 1017 10 16 0.00 0.00
11:35 pm 23:35 Clear 38 3.3 36 2.2 93 93 SSW 6 9 30.06 1018 10 16 0.00 0.00
11:55 pm 23:55 Clear 39 3.8 36 2.4 91 91 S 3 6 30.03 1017 10 16 0.00 0.00

Powered by AerisWeather